K1QL Weather Reports


time (UTC)temp
C
wind
direction
speed
KPH
gust
KPH
rain 1hr
cm
rain 24hr
cm
rain mn
cm
humidity
%
barometer
mb
20260507123142 11 322 3.2 6.4 0.00 0.53 0.53 87 1008.1
20260507122637 11 47 3.2 3.2 0.00 0.53 0.53 91 1008.2
20260507122133 10 269 0.0 1.6 0.00 0.53 0.53 93 1008.5
20260507121629 10 304 0.0 3.2 0.00 0.53 0.53 94 1008.4
20260507121126 9 240 1.6 3.2 0.00 0.53 0.53 94 1008.6
20260507120622 9 245 3.2 3.2 0.00 0.53 0.53 95 1008.7
20260507120118 9 321 3.2 3.2 0.00 0.53 0.53 95 1008.3
20260507115615 9 349 3.2 3.2 0.00 0.53 0.53 95 1008.2
20260507115111 9 29 1.6 3.2 0.00 0.53 0.53 95 1008.3
20260507114607 9 293 0.0 3.2 0.00 0.53 0.53 95 1008.2
20260507114104 9 304 0.0 3.2 0.00 0.53 0.53 95 1008.2
20260507113601 9 51 1.6 1.6 0.00 0.53 0.53 96 1008.0
20260507113059 9 34 0.0 3.2 0.00 0.53 0.53 96 1008.2
20260507112556 9 274 1.6 1.6 0.00 0.53 0.53 96 1008.1
20260507112053 9 246 1.6 3.2 0.00 0.53 0.53 96 1008.2
20260507111550 9 209 0.0 3.2 0.00 0.53 0.53 96 1008.3
20260507111047 9 278 0.0 3.2 0.00 0.53 0.53 96 1008.0
20260507110543 9 286 1.6 3.2 0.00 0.53 0.53 96 1007.9
20260507110039 9 323 1.6 3.2 0.00 0.53 0.53 96 1008.0
20260507105537 9 336 0.0 3.2 0.00 0.53 0.53 96 1007.8
20260507105032 9 352 1.6 3.2 0.05 0.53 0.53 96 1007.8
20260507104530 9 137 1.6 1.6 0.05 0.53 0.53 96 1008.0
20260507104026 9 351 0.0 3.2 0.05 0.53 0.53 95 1007.4
20260507103523 9 96 1.6 3.2 0.05 0.53 0.53 95 1007.7
20260507103019 9 103 3.2 4.8 0.13 0.51 0.51 95 1007.3
20260507102516 9 151 3.2 3.2 0.23 0.51 0.51 95 1007.5
20260507102012 9 58 3.2 6.4 0.18 0.51 0.51 95 1007.4
20260507101507 9 69 0.0 3.2 0.05 0.48 0.48 95 1007.8
20260507101004 9 6 0.0 3.2 0.13 0.46 0.46 95 1007.9
20260507100501 9 113 0.0 0.0 0.18 0.46 0.46 95 1007.9
20260507095959 9 76 0.0 1.6 0.18 0.46 0.46 95 1008.0
20260507095457 9 125 0.0 1.6 0.18 0.43 0.43 95 1007.7
20260507094954 9 128 0.0 0.0 0.18 0.43 0.43 95 1007.5
20260507094450 9 212 0.0 1.6 0.05 0.41 0.41 94 1008.0
20260507093947 9 279 0.0 1.6 0.05 0.38 0.38 95 1007.7
20260507093445 9 191 1.6 3.2 0.13 0.38 0.38 94 1007.5
20260507092943 9 335 1.6 8.0 0.13 0.38 0.38 94 1007.0
20260507092438 9 0 1.6 6.4 0.18 0.38 0.38 94 1007.0
20260507091936 9 314 0.0 3.2 0.13 0.36 0.36 94 1007.4
20260507091432 9 336 0.0 3.2 0.00 0.33 0.33 94 1007.4
20260507090928 9 46 0.0 3.2 0.00 0.33 0.33 94 1007.3
20260507090424 9 113 0.0 6.4 0.00 0.33 0.33 94 1007.2
20260507085921 9 36 3.2 6.4 0.05 0.33 0.33 94 1007.1
20260507085418 9 151 0.0 1.6 0.13 0.33 0.33 94 1007.0
20260507084915 9 44 0.0 6.4 0.23 0.33 0.33 93 1006.9
20260507084412 9 10 3.2 6.4 0.23 0.33 0.33 93 1006.8
20260507083909 9 38 3.2 4.8 0.13 0.28 0.28 93 1007.1
20260507083405 9 41 0.0 3.2 0.23 0.28 0.28 93 1007.7
20260507082902 10 217 0.0 1.6 0.13 0.25 0.25 93 1007.3
20260507082357 10 306 0.0 6.4 0.13 0.23 0.23 92 1007.1
20260507081855 10 252 3.2 3.2 0.13 0.23 0.23 92 1007.2
20260507081351 10 267 1.6 1.6 0.23 0.23 0.23 92 1007.3
20260507080848 10 2 3.2 3.2 0.18 0.20 0.20 91 1007.2
20260507080344 10 308 3.2 4.8 0.18 0.18 0.18 91 1007.2
20260507075839 10 79 4.8 4.8 0.18 0.15 0.15 91 1007.1
20260507075335 10 13 3.2 3.2 0.18 0.15 0.15 91 1007.4
20260507074832 10 304 0.0 0.0 0.13 0.13 0.13 91 1007.5
20260507074330 10 269 3.2 3.2 0.18 0.13 0.13 90 1007.7
20260507073827 10 294 0.0 3.2 0.36 0.10 0.10 89 1007.4
20260507073323 10 302 0.0 0.0 0.30 0.10 0.10 87 1006.9
20260507072821 11 269 0.0 6.4 0.18 0.05 0.05 85 1007.5
20260507072318 11 268 3.2 8.0 0.23 0.05 0.05 82 1007.4
20260507071815 11 344 3.2 6.4 0.05 0.00 0.00 80 1006.5
20260507071312 12 271 0.0 4.8 0.00 0.00 0.00 81 1006.5
20260507070808 12 296 0.0 3.2 0.00 0.00 0.00 80 1006.1
20260507070306 12 259 1.6 4.8 0.00 0.00 0.00 80 1006.2
20260507065802 12 322 0.0 3.2 0.00 0.00 0.00 79 1006.0
20260507065259 12 330 3.2 6.4 0.00 0.00 0.00 78 1006.2
20260507064756 12 321 0.0 4.8 0.00 0.00 0.00 78 1006.2
20260507064255 12 355 6.4 8.0 0.00 0.00 0.00 78 1006.2
20260507063752 12 330 6.4 6.4 0.00 0.00 0.00 81 1006.4
20260507063249 12 253 1.6 9.7 0.00 0.00 0.00 83 1006.5
20260507062746 13 41 3.2 4.8 0.00 0.00 0.00 88 1006.2
20260507062243 13 291 3.2 4.8 0.00 0.00 0.00 89 1006.3
20260507061741 13 34 0.0 3.2 0.00 0.00 0.00 88 1006.4
20260507061239 13 27 0.0 3.2 0.00 0.00 0.00 88 1006.3
20260507060737 13 265 1.6 1.6 0.00 0.00 0.00 88 1006.3
20260507060233 13 16 3.2 3.2 0.00 0.00 0.00 88 1006.3
20260507055729 13 45 0.0 1.6 0.00 0.00 0.00 88 1006.4
20260507055225 13 18 0.0 3.2 0.00 0.00 0.00 88 1006.5
20260507054721 13 16 0.0 6.4 0.00 0.00 0.00 88 1006.5
20260507054218 13 319 0.0 4.8 0.00 0.00 0.00 89 1006.7
20260507053716 13 319 0.0 4.8 0.00 0.00 0.00 90 1006.5
20260507053213 13 298 0.0 1.6 0.00 0.00 0.00 91 1006.7
20260507052712 14 350 1.6 1.6 0.00 0.00 0.00 91 1006.5
20260507052208 14 317 0.0 1.6 0.00 0.00 0.00 91 1006.9
20260507051706 14 343 1.6 3.2 0.00 0.00 0.00 90 1006.9
20260507051202 14 308 1.6 3.2 0.00 0.00 0.00 90 1006.9
20260507050659 14 310 0.0 1.6 0.00 0.00 0.00 90 1006.8
20260507050156 14 245 3.2 3.2 0.00 0.00 0.00 90 1006.5
20260507045652 14 235 0.0 4.8 0.00 0.00 0.00 90 1006.7
20260507045149 14 254 3.2 4.8 0.00 0.00 0.00 90 1006.5
20260507044646 14 278 3.2 3.2 0.00 0.00 0.00 90 1006.8
20260507044143 14 273 3.2 4.8 0.00 0.00 0.00 90 1006.6
20260507043639 15 251 3.2 4.8 0.00 0.00 0.00 90 1006.5
20260507043136 15 252 6.4 6.4 0.00 0.00 0.00 91 1006.6
20260507042632 15 296 3.2 3.2 0.00 0.00 0.00 91 1006.4
20260507042127 15 276 3.2 4.8 0.00 0.00 0.00 92 1006.5
20260507041625 15 267 4.8 6.4 0.00 0.00 0.00 92 1006.6
20260507041121 15 269 1.6 4.8 0.00 0.00 0.00 93 1006.6
20260507040618 15 221 0.0 3.2 0.00 0.00 0.00 93 1006.5
20260507040115 15 249 0.0 0.0 0.00 0.00 0.00 93 1006.6
20260507035611 15 309 0.0 1.6 0.00 0.15 0.15 92 1006.6
20260507035107 15 344 3.2 4.8 0.00 0.15 0.15 92 1006.7
20260507034604 15 269 1.6 4.8 0.00 0.15 0.15 92 1006.7
20260507034102 15 233 3.2 4.8 0.00 0.15 0.15 91 1006.5
20260507033600 15 252 0.0 3.2 0.00 0.15 0.15 91 1006.4
20260507033056 15 306 1.6 3.2 0.00 0.15 0.15 91 1006.7
20260507032554 15 22 0.0 4.8 0.00 0.15 0.15 91 1006.7
20260507032050 15 258 1.6 6.4 0.00 0.15 0.15 91 1006.6
20260507031546 15 229 1.6 4.8 0.00 0.15 0.15 91 1006.4
20260507031043 15 234 0.0 4.8 0.00 0.15 0.15 91 1006.6
20260507030540 15 199 0.0 3.2 0.00 0.15 0.15 91 1006.4
20260507030038 15 209 3.2 3.2 0.00 0.15 0.15 91 1006.5
20260507025535 15 216 3.2 12.9 0.00 0.15 0.15 91 1006.4
20260507025032 15 274 3.2 3.2 0.00 0.15 0.15 91 1006.3
20260507024530 15 232 3.2 6.4 0.00 0.15 0.15 91 1006.4
20260507024026 15 231 6.4 6.4 0.00 0.15 0.15 91 1006.3
20260507023522 15 269 0.0 3.2 0.00 0.15 0.15 91 1006.5
20260507023020 15 192 3.2 6.4 0.00 0.15 0.15 91 1006.3
20260507022516 15 190 3.2 4.8 0.00 0.15 0.15 91 1006.4
20260507022012 15 196 4.8 6.4 0.00 0.15 0.15 91 1006.4
20260507021508 15 261 1.6 4.8 0.00 0.15 0.15 92 1006.3
20260507021005 15 269 4.8 6.4 0.00 0.15 0.15 92 1006.5
20260507020502 15 272 3.2 4.8 0.00 0.15 0.15 92 1006.4
20260507015959 15 99 0.0 3.2 0.00 0.15 0.15 92 1006.3
20260507015458 15 162 1.6 6.4 0.00 0.15 0.15 92 1006.4
20260507014954 15 201 4.8 6.4 0.00 0.15 0.15 92 1006.3
20260507014451 15 136 3.2 3.2 0.00 0.15 0.15 93 1006.3
20260507013946 15 252 3.2 3.2 0.00 0.15 0.15 93 1006.4
20260507013443 15 271 3.2 3.2 0.00 0.15 0.15 93 1006.5
20260507012941 15 191 1.6 4.8 0.00 0.15 0.15 93 1006.1
20260507012438 15 239 3.2 4.8 0.00 0.15 0.15 93 1006.5
20260507011934 15 223 3.2 3.2 0.00 0.15 0.15 93 1006.6
20260507011432 14 247 0.0 3.2 0.00 0.15 0.15 93 1006.6
20260507010932 14 274 4.8 6.4 0.00 0.15 0.15 93 1006.6
20260507010427 14 219 0.0 4.8 0.00 0.15 0.15 93 1006.8
20260507005924 14 83 1.6 4.8 0.00 0.15 0.15 93 1006.6
20260507005421 14 144 0.0 4.8 0.00 0.15 0.15 93 1006.7
20260507004917 14 221 6.4 8.0 0.00 0.15 0.15 93 1006.6
20260507004414 14 223 3.2 9.7 0.00 0.15 0.15 93 1006.7
20260507003912 14 130 1.6 6.4 0.00 0.15 0.15 93 1006.9
20260507003407 14 204 4.8 6.4 0.00 0.15 0.15 93 1006.8
20260507002902 14 274 6.4 8.0 0.00 0.15 0.15 93 1006.8
20260507002358 14 196 6.4 6.4 0.00 0.15 0.15 93 1006.7
20260507001856 14 226 4.8 9.7 0.00 0.15 0.15 93 1006.8
20260507001353 14 266 3.2 9.7 0.00 0.15 0.15 93 1006.4
20260507000849 14 232 4.8 6.4 0.00 0.15 0.15 93 1006.6
20260507000345 14 227 1.6 4.8 0.00 0.15 0.15 93 1006.5
20260506235841 14 127 3.2 6.4 0.00 0.15 0.15 93 1006.5
20260506235339 14 169 3.2 4.8 0.05 0.15 0.15 93 1006.6
20260506234834 14 182 3.2 6.4 0.05 0.15 0.15 93 1006.6
20260506234332 14 182 3.2 8.0 0.00 0.13 0.13 93 1006.6
20260506233830 14 200 3.2 4.8 0.00 0.13 0.13 93 1006.5
20260506233325 14 166 3.2 4.8 0.00 0.13 0.13 93 1006.5
20260506232823 14 166 3.2 4.8 0.00 0.13 0.13 93 1006.4
20260506232318 14 182 3.2 6.4 0.00 0.13 0.13 93 1006.4
20260506231815 14 183 1.6 4.8 0.00 0.13 0.13 92 1006.4
20260506231313 14 240 0.0 8.0 0.00 0.13 0.13 92 1006.3
20260506230810 14 126 1.6 6.4 0.00 0.13 0.13 92 1006.4
20260506230307 14 225 4.8 8.0 0.00 0.13 0.13 92 1006.5
20260506225803 14 249 1.6 8.0 0.00 0.13 0.13 92 1006.4
20260506225300 15 156 0.0 9.7 0.00 0.13 0.13 92 1006.5
20260506224756 15 216 0.0 4.8 0.00 0.13 0.13 92 1006.6
20260506224254 15 119 0.0 4.8 0.00 0.13 0.13 92 1006.5
20260506223750 15 190 3.2 6.4 0.00 0.13 0.13 92 1006.6
20260506223246 15 173 4.8 6.4 0.00 0.13 0.13 92 1006.2
20260506222743 15 239 3.2 6.4 0.00 0.13 0.13 92 1006.3
20260506222239 15 133 3.2 6.4 0.00 0.13 0.13 92 1006.5
20260506221737 15 116 3.2 6.4 0.00 0.13 0.13 92 1006.3
20260506221234 15 138 4.8 6.4 0.00 0.13 0.13 92 1006.5
20260506220731 15 151 8.0 8.0 0.05 0.13 0.13 92 1006.5
20260506220226 15 164 0.0 6.4 0.05 0.13 0.13 92 1006.8
20260506215723 15 140 4.8 6.4 0.00 0.13 0.13 92 1006.8
20260506215218 15 175 4.8 8.0 0.00 0.13 0.13 92 1006.7
20260506214715 15 135 3.2 3.2 0.05 0.13 0.13 92 1006.8
20260506214213 15 151 3.2 6.4 0.00 0.10 0.10 91 1006.8
20260506213711 15 233 3.2 4.8 0.00 0.10 0.10 91 1006.7
20260506213208 15 177 1.6 4.8 0.05 0.10 0.10 91 1006.8
20260506212705 15 283 0.0 3.2 0.05 0.10 0.10 90 1006.8
20260506212200 15 203 3.2 4.8 0.00 0.10 0.10 90 1006.8
20260506211656 15 177 0.0 3.2 0.00 0.10 0.10 89 1007.1
20260506211152 15 233 4.8 8.0 0.00 0.10 0.10 89 1007.1
20260506210649 15 190 3.2 8.0 0.00 0.10 0.10 89 1007.2
20260506210146 15 224 0.0 11.3 0.00 0.10 0.10 89 1007.2
20260506205644 15 193 4.8 6.4 0.00 0.10 0.10 90 1007.1
20260506205138 15 103 0.0 6.4 0.05 0.10 0.10 90 1007.1
20260506204636 15 186 1.6 12.9 0.05 0.10 0.10 89 1007.0
20260506204133 15 109 3.2 9.7 0.05 0.10 0.10 89 1007.2
20260506203631 15 169 0.0 4.8 0.00 0.08 0.08 89 1007.4
20260506203127 15 188 3.2 4.8 0.00 0.08 0.08 88 1007.4
20260506202626 15 200 3.2 8.0 0.00 0.08 0.08 88 1007.3
20260506202121 15 148 3.2 3.2 0.05 0.08 0.08 88 1007.3
20260506201619 15 186 3.2 4.8 0.05 0.08 0.08 88 1007.5
20260506201115 15 267 1.6 3.2 0.00 0.08 0.08 88 1007.7
20260506200612 15 22 3.2 8.0 0.00 0.08 0.08 88 1007.4
20260506200109 15 261 6.4 9.7 0.00 0.08 0.08 88 1007.5
20260506195605 15 230 9.7 9.7 0.00 0.08 0.08 87 1007.7
20260506195102 16 208 6.4 8.0 0.00 0.08 0.08 87 1007.5
20260506194559 16 211 0.0 6.4 0.05 0.08 0.08 86 1007.4
20260506194055 16 208 8.0 12.9 0.18 0.08 0.08 85 1007.5
20260506193553 16 241 6.4 9.7 0.13 0.05 0.05 83 1007.4
20260506193050 16 154 3.2 14.5 0.13 0.05 0.05 81 1007.4
20260506192547 16 227 6.4 6.4 0.05 0.03 0.03 80 1007.7
20260506192043 16 224 6.4 6.4 0.05 0.03 0.03 79 1007.9
20260506191540 17 187 1.6 6.4 0.05 0.03 0.03 78 1007.7
20260506191035 17 212 3.2 11.3 0.05 0.00 0.00 77 1007.5
20260506190533 17 217 9.7 14.5 0.05 0.00 0.00 76 1007.8
20260506190030 17 274 3.2 11.3 0.00 0.00 0.00 74 1007.5
20260506185527 17 227 11.3 12.9 0.00 0.00 0.00 73 1008.0
20260506185024 18 199 8.0 12.9 0.00 0.00 0.00 71 1007.9
20260506184521 18 290 4.8 9.7 0.00 0.00 0.00 69 1007.9
20260506184018 18 225 4.8 12.9 0.00 0.00 0.00 67 1008.0
20260506183514 18 204 6.4 14.5 0.00 0.00 0.00 66 1007.9
20260506183011 19 184 3.2 6.4 0.00 0.00 0.00 65 1007.8
20260506182508 19 267 3.2 12.9 0.00 0.00 0.00 64 1008.0
20260506182005 20 138 1.6 11.3 0.00 0.00 0.00 63 1008.0
20260506181503 20 191 8.0 17.7 0.00 0.00 0.00 61 1008.2
20260506181000 20 200 6.4 9.7 0.00 0.00 0.00 60 1007.8
20260506180456 20 284 3.2 8.0 0.00 0.00 0.00 59 1008.0
20260506175953 20 203 14.5 16.1 0.00 0.00 0.00 58 1008.2
20260506175450 21 224 6.4 11.3 0.00 0.00 0.00 58 1008.1
20260506174946 21 189 4.8 19.3 0.00 0.00 0.00 57 1008.2
20260506174444 21 274 4.8 4.8 0.00 0.00 0.00 57 1008.2
20260506173940 21 180 8.0 9.7 0.00 0.00 0.00 56 1008.1
20260506173438 21 295 3.2 11.3 0.00 0.00 0.00 55 1008.1
20260506172935 21 237 6.4 9.7 0.00 0.00 0.00 55 1008.5
20260506172432 21 291 4.8 9.7 0.00 0.00 0.00 55 1008.2
20260506171928 21 240 8.0 17.7 0.00 0.00 0.00 55 1008.4
20260506171426 21 254 4.8 17.7 0.00 0.00 0.00 55 1008.5
20260506170924 21 194 8.0 17.7 0.00 0.00 0.00 55 1008.2
20260506170420 22 163 4.8 24.1 0.00 0.00 0.00 53 1008.6
20260506165919 22 301 6.4 16.1 0.00 0.00 0.00 54 1008.4
20260506165417 22 223 12.9 17.7 0.00 0.00 0.00 53 1008.2
20260506164913 22 243 16.1 17.7 0.00 0.00 0.00 53 1008.5
20260506164409 22 233 11.3 17.7 0.00 0.00 0.00 54 1008.4
20260506163908 22 78 4.8 9.7 0.00 0.00 0.00 55 1008.6
20260506163401 22 201 6.4 14.5 0.00 0.00 0.00 55 1009.0
20260506162856 22 227 16.1 20.9 0.00 0.00 0.00 53 1008.9
20260506162355 22 297 3.2 9.7 0.00 0.00 0.00 54 1008.8
20260506161852 21 245 3.2 16.1 0.00 0.00 0.00 55 1008.8
20260506161349 21 218 6.4 20.9 0.00 0.00 0.00 55 1008.9
20260506160847 22 224 6.4 11.3 0.00 0.00 0.00 54 1009.1
20260506160344 22 227 9.7 16.1 0.00 0.00 0.00 54 1009.3
20260506155842 21 262 1.6 6.4 0.00 0.00 0.00 55 1009.1
20260506155338 21 238 12.9 17.7 0.00 0.00 0.00 54 1009.3
20260506153450 22 170 9.7 17.7 0.00 0.00 0.00 54 1009.4
20260506152948 22 267 8.0 12.9 0.00 0.00 0.00 54 1009.5
20260506152444 22 211 6.4 20.9 0.00 0.00 0.00 54 1009.4
20260506151943 22 227 9.7 16.1 0.00 0.00 0.00 56 1009.7
20260506151440 21 205 6.4 14.5 0.00 0.00 0.00 56 1009.5
20260506150937 21 220 9.7 12.9 0.00 0.00 0.00 57 1009.7
20260506150433 21 266 8.0 20.9 0.00 0.00 0.00 58 1009.8
20260506145931 21 260 9.7 16.1 0.00 0.00 0.00 57 1009.6
20260506145427 21 232 11.3 11.3 0.00 0.00 0.00 57 1009.7
20260506144924 21 237 3.2 12.9 0.00 0.00 0.00 57 1009.6
20260506144421 21 197 4.8 17.7 0.00 0.00 0.00 57 1009.7
20260506143919 21 206 8.0 16.1 0.00 0.00 0.00 57 1009.7
20260506143416 21 294 4.8 16.1 0.00 0.00 0.00 56 1009.8
20260506142914 21 250 3.2 9.7 0.00 0.00 0.00 57 1009.7
20260506142412 21 226 6.4 12.9 0.00 0.00 0.00 58 1009.6
20260506141910 21 168 0.0 9.7 0.00 0.00 0.00 58 1009.5
20260506141407 21 230 4.8 16.1 0.00 0.00 0.00 58 1009.7
20260506140906 21 244 6.4 17.7 0.00 0.00 0.00 57 1009.6
20260506140402 21 141 17.7 19.3 0.00 0.00 0.00 59 1009.6
20260506135859 21 241 8.0 11.3 0.00 0.00 0.00 59 1009.7
20260506135356 20 201 8.0 17.7 0.00 0.00 0.00 61 1009.6
20260506134852 20 252 6.4 24.1 0.00 0.00 0.00 61 1009.6
20260506134348 20 194 8.0 16.1 0.00 0.00 0.00 61 1009.8
20260506133846 20 214 4.8 16.1 0.00 0.00 0.00 60 1009.5
20260506133342 21 213 6.4 12.9 0.00 0.00 0.00 61 1009.7
20260506132839 20 215 8.0 8.0 0.00 0.00 0.00 61 1010.0
20260506132336 20 52 3.2 9.7 0.00 0.00 0.00 62 1010.1
20260506131834 20 276 6.4 6.4 0.00 0.00 0.00 62 1010.1
20260506131330 20 258 4.8 14.5 0.00 0.00 0.00 63 1010.0
20260506130828 20 261 4.8 8.0 0.00 0.00 0.00 63 1010.3
20260506130324 20 336 3.2 9.7 0.00 0.00 0.00 64 1010.1
20260506125822 20 217 3.2 9.7 0.00 0.00 0.00 65 1010.2
20260506125320 20 186 4.8 6.4 0.00 0.00 0.00 66 1010.1
20260506124818 19 254 6.4 6.4 0.00 0.00 0.00 67 1010.2
20260506124315 18 239 4.8 9.7 0.00 0.00 0.00 67 1010.2
20260506123812 18 23 1.6 9.7 0.00 0.00 0.00 68 1010.3